Location: Peebles
(55.6412°N, 3.1714°W)
Time: 02:26:46
(UTC+01:00)

FENGYUN 1C DEB - Pass Details

Date: 09 July 2022
Orbit: 580 x 1160 km, 99.3° (Epoch: 11 August)

Event Time Altitude Azimuth Distance (km) Brightness Sun altitude
Exits shadow 23:47:36 - 135° (SE) 2,787 ? -9.7°
Reaches altitude 10° 23:47:47 10° 134° (SE) 2,718 ? -9.8°
Maximum altitude 23:53:46 52° 60° (ENE) 1,305 ? -10.1°
Drops below altitude 10° 00:00:27 10° 347° (NNW) 3,032 ? -10.4°
Sets 00:03:13 0° 343° (NNW) 4,027 ? -10.5°
